Telluride, CO

10:51 AM MST on December 11, 2019 (GMT -0700)
Telluride Regional

Weather History for KTEX - October, 2019

Change the Weather History Date:

Friday, October 25, 2019

  Actual Average Record
Temperature  
Mean Temperature 38 °F -  
Max Temperature 55 °F 44 °F 66 °F (2014)
Min Temperature 21 °F 28 °F 17 °F (1997)
Degree Days  
Heating Degree Days 27    
Moisture  
Dew Point 16 °F    
Average Humidity 47    
Maximum Humidity 68    
Minimum Humidity 26    
Precipitation  
Precipitation 0.00 in - - ()
Sea Level Pressure  
Sea Level Pressure 30.41 in    
Wind  
Wind Speed 3 mph (SSW)    
Max Wind Speed 16 mph    
Max Gust Speed 23 mph    
Visibility 10 miles    
Events      
Averages and records for this station are not official NWS values.
T = Trace of Precipitation, MM = Missing Value Source: NWS Daily Summary

Daily Weather History Graph

Daily Weather History Graph

Search for Another Location

Airport or City:

Astronomy

Oct. 25, 2019 Rise Set
Actual Time 7:29 AM MDT 6:20 PM MDT
Civil Twilight 7:02 AM MDT 6:47 PM MDT
Nautical Twilight 6:32 AM MDT 7:18 PM MDT
Astronomical Twilight 6:01 AM MDT 7:49 PM MDT
Moon 4:20 AM MDT (10/25) 5:20 PM MDT (10/25)
Length of Visible Light 11h 44m
Length of Day
10h 51m
Waning Crescent, 8% of the Moon is Illuminated
Oct 25
Waning Crescent
Oct 27
New
Nov 4
First Quarter
Nov 12
Full
Nov 19
Last Quarter

Hourly Weather History & Observations

Time (MDT) Temp. Windchill Dew Point Humidity Pressure Visibility Wind Dir Wind Speed Gust Speed Precip Events Conditions
12:15 AM 24.8 °F - 10.4 °F 54% 30.43 in 10.0 mi Calm Calm - N/A   Clear
12:35 AM 24.8 °F - 12.2 °F 59% 30.43 in 10.0 mi Calm Calm - N/A   Clear
12:55 AM 24.8 °F - 10.4 °F 54% 30.43 in 10.0 mi Calm Calm - N/A   Clear
1:15 AM 23.0 °F - 10.4 °F 59% 30.42 in 10.0 mi Calm Calm - N/A   Clear
1:35 AM 23.0 °F - 10.4 °F 59% 30.42 in 10.0 mi Calm Calm - N/A   Clear
1:55 AM 23.0 °F - 10.4 °F 59% 30.42 in 10.0 mi Calm Calm - N/A   Clear
2:35 AM 21.2 °F - 10.4 °F 63% 30.43 in 10.0 mi Calm Calm - N/A   Clear
2:55 AM 21.2 °F - 10.4 °F 63% 30.44 in 10.0 mi Calm Calm - N/A   Clear
3:15 AM 23.0 °F - 12.2 °F 63% 30.44 in 10.0 mi Calm Calm - N/A   Clear
3:35 AM 23.0 °F - 12.2 °F 63% 30.44 in 10.0 mi Calm Calm - N/A   Clear
4:15 AM 21.2 °F 16.4 °F 10.4 °F 63% 30.44 in 10.0 mi ESE 3.5 mph - N/A   Clear
4:35 AM 23.0 °F - 12.2 °F 63% 30.43 in 10.0 mi Calm Calm - N/A   Clear
4:55 AM 21.2 °F 14.9 °F 10.4 °F 63% 30.43 in 10.0 mi SSE 4.6 mph - N/A   Clear
5:15 AM 21.2 °F 16.4 °F 12.2 °F 68% 30.43 in 10.0 mi SSE 3.5 mph - N/A   Clear
5:35 AM 21.2 °F 14.9 °F 12.2 °F 68% 30.44 in 10.0 mi SE 4.6 mph - N/A   Clear
5:55 AM 23.0 °F 17.0 °F 12.2 °F 63% 30.45 in 10.0 mi SSE 4.6 mph - N/A   Clear
6:15 AM 21.2 °F - 12.2 °F 68% 30.46 in 10.0 mi Calm Calm - N/A   Clear
6:35 AM 23.0 °F - 12.2 °F 63% 30.47 in 10.0 mi Calm Calm - N/A   Clear
6:55 AM 23.0 °F 18.4 °F 12.2 °F 63% 30.47 in 10.0 mi SE 3.5 mph - N/A   Clear
7:15 AM 23.0 °F 14.7 °F 12.2 °F 63% 30.48 in 10.0 mi SE 6.9 mph - N/A   Clear
7:30 AM 23.0 °F 14.7 °F 12.2 °F 63% 30.47 in 10.0 mi SSE 6.9 mph - N/A   Clear
7:55 AM 23.0 °F 18.4 °F 12.2 °F 63% 30.47 in 10.0 mi SSE 3.5 mph - N/A   Clear
8:15 AM 26.6 °F - 12.2 °F 55% 30.48 in 10.0 mi Calm Calm - N/A   Clear
8:35 AM 28.4 °F 24.6 °F 14.0 °F 55% 30.48 in 10.0 mi ESE 3.5 mph - N/A   Clear
8:55 AM 30.2 °F 25.4 °F 12.2 °F 47% 30.48 in 10.0 mi SE 4.6 mph - N/A   Clear
9:15 AM 32.0 °F 27.5 °F 12.2 °F 44% 30.48 in 10.0 mi SSE 4.6 mph - N/A   Clear
9:35 AM 32.0 °F - 14.0 °F 48% 30.48 in 10.0 mi Calm Calm - N/A   Clear
9:55 AM 33.8 °F - 14.0 °F 44% 30.48 in 10.0 mi Calm Calm - N/A   Clear
10:15 AM 35.6 °F - 14.0 °F 41% 30.47 in 10.0 mi Calm Calm - N/A   Clear
10:35 AM 39.2 °F - 14.0 °F 36% 30.47 in 10.0 mi Calm Calm - N/A   Clear
10:55 AM 41.0 °F - 14.0 °F 33% 30.46 in 10.0 mi Calm Calm - N/A   Clear
11:15 AM 42.8 °F - 14.0 °F 31% 30.45 in 10.0 mi Calm Calm - N/A   Clear
11:35 AM 44.6 °F 42.2 °F 15.8 °F 31% 30.45 in 10.0 mi SSW 4.6 mph - N/A   Clear
11:55 AM 46.4 °F - 15.8 °F 29% 30.44 in 10.0 mi Calm Calm - N/A   Clear
12:15 PM 48.2 °F - 17.6 °F 30% 30.43 in 10.0 mi Calm Calm - N/A   Clear
12:35 PM 50.0 °F - 17.6 °F 28% 30.42 in 10.0 mi Calm Calm - N/A   Clear
12:55 PM 53.6 °F - 19.4 °F 26% 30.40 in 10.0 mi West 8.1 mph - N/A   Clear
1:15 PM 53.6 °F - 19.4 °F 26% 30.39 in 10.0 mi West 9.2 mph - N/A   Clear
1:35 PM 53.6 °F - 21.2 °F 28% 30.38 in 10.0 mi West 9.2 mph - N/A   Clear
1:55 PM 55.4 °F - 21.2 °F 26% 30.37 in 10.0 mi West 12.7 mph 17.3 mph N/A   Clear
2:15 PM 53.6 °F - 21.2 °F 28% 30.36 in 10.0 mi West 16.1 mph 23.0 mph N/A   Clear
2:35 PM 53.6 °F - 21.2 °F 28% 30.35 in 10.0 mi West 16.1 mph 20.7 mph N/A   Clear
2:50 PM 53.6 °F - 21.2 °F 28% 30.35 in 10.0 mi West 12.7 mph 18.4 mph N/A   Clear
3:10 PM 53.6 °F - 23.0 °F 30% 30.35 in 10.0 mi West 16.1 mph 21.9 mph N/A   Clear
3:35 PM 53.6 °F - 23.0 °F 30% 30.35 in 10.0 mi West 16.1 mph - N/A   Clear
3:55 PM 53.6 °F - 21.2 °F 28% 30.35 in 10.0 mi West 13.8 mph 19.6 mph N/A   Clear
4:10 PM 53.6 °F - 21.2 °F 28% 30.35 in 10.0 mi West 15.0 mph 20.7 mph N/A   Clear
4:40 PM 53.6 °F - 21.2 °F 28% 30.35 in 10.0 mi West 11.5 mph - N/A   Clear
4:55 PM 51.8 °F - 21.2 °F 30% 30.35 in 10.0 mi West 10.4 mph - N/A   Clear
5:15 PM 51.8 °F - 21.2 °F 30% 30.34 in 10.0 mi WSW 9.2 mph - N/A   Clear
5:35 PM 50.0 °F - 19.4 °F 30% 30.34 in 10.0 mi West 11.5 mph - N/A   Clear
5:55 PM 48.2 °F - 19.4 °F 32% 30.35 in 10.0 mi West 10.4 mph 17.3 mph N/A   Clear
6:15 PM 46.4 °F 41.1 °F 19.4 °F 34% 30.35 in 10.0 mi West 11.5 mph - N/A   Clear
6:35 PM 44.6 °F 42.2 °F 19.4 °F 37% 30.35 in 10.0 mi WSW 4.6 mph - N/A   Clear
6:55 PM 44.6 °F 43.1 °F 19.4 °F 37% 30.36 in 10.0 mi WSW 3.5 mph - N/A   Unknown
7:15 PM 42.8 °F - 19.4 °F 39% 30.36 in 10.0 mi Calm Calm - N/A   Unknown
9:40 PM 35.6 °F 29.9 °F 21.2 °F 56% 30.36 in 10.0 mi ESE 6.9 mph - N/A   Unknown
9:55 PM 35.6 °F 29.9 °F 21.2 °F 56% 30.36 in 10.0 mi SE 6.9 mph - N/A   Unknown
10:15 PM 33.8 °F 27.0 °F 21.2 °F 60% 30.35 in 10.0 mi SE 8.1 mph - N/A   Clear
10:35 PM 35.6 °F 29.9 °F 21.2 °F 56% 30.35 in 10.0 mi SE 6.9 mph - N/A   Clear
10:55 PM 33.8 °F 28.6 °F 21.2 °F 60% 30.34 in 10.0 mi SE 5.8 mph - N/A   Clear
11:15 PM 35.6 °F 30.7 °F 21.2 °F 56% 30.33 in 10.0 mi SE 5.8 mph - N/A   Clear
11:35 PM 33.8 °F 30.8 °F 21.2 °F 60% 30.33 in 10.0 mi ESE 3.5 mph - N/A   Clear
11:55 PM 33.8 °F 27.7 °F 21.2 °F 60% 30.32 in 10.0 mi SSE 6.9 mph - N/A   Clear